GFSCGP_500_temp_132.txt.gz
Temp
-12 -13 -11 -10 -10 -10 -10 -9 -9 -9 -8 -8 -9 -9 -9 -9 -9 -9 -8 -8 -8 -8 -8 -8 -8 -8 -9 -9 -10 -11 -11 -11 -11 -11 -10 -10 -10 -10 -10 -10 -10 -10 -10 -9
-15 -12 -11 -13 -12 -11 -11 -10 -9 -9 -8 -8 -9 -9 -9 -10 -9 -8 -8 -8 -8 -7 -8 -8 -8 -8 -9 -9 -9 -10 -10 -11 -11 -11 -11 -11 -10 -10 -10 -10 -10 -9 -9 -10
-17 -15 -15 -14 -13 -12 -11 -11 -11 -10 -10 -9 -10 -10 -9 -10 -9 -9 -8 -8 -8 -7 -7 -8 -9 -9 -10 -10 -10 -11 -11 -11 -11 -10 -10 -10 -10 -10 -10 -10 -10 -10 -9 -9
-18 -18 -17 -17 -15 -14 -13 -12 -13 -12 -11 -11 -11 -10 -10 -10 -9 -9 -9 -8 -8 -8 -8 -8 -9 -10 -10 -10 -11 -10 -10 -10 -11 -11 -11 -10 -10 -10 -10 -10 -10 -10 -10 -9
-19 -19 -19 -18 -15 -14 -12 -14 -14 -14 -14 -14 -12 -11 -11 -9 -9 -9 -8 -8 -8 -8 -9 -9 -9 -9 -10 -11 -11 -11 -11 -11 -11 -11 -10 -10 -10 -10 -10 -10 -10 -10 -10 -10
-20 -20 -19 -17 -18 -17 -17 -17 -16 -16 -16 -17 -12 -11 -11 -9 -9 -9 -9 -8 -8 -8 -9 -9 -9 -9 -10 -10 -10 -11 -11 -11 -11 -11 -11 -11 -11 -11 -10 -10 -10 -10 -10 -10
-20 -20 -19 -18 -19 -18 -18 -18 -17 -18 -19 -11 -12 -12 -10 -9 -10 -9 -9 -9 -8 -9 -9 -9 -9 -10 -10 -10 -11 -11 -11 -11 -11 -11 -11 -11 -11 -11 -11 -11 -11 -11 -11 -11
-20 -19 -19 -19 -18 -17 -17 -18 -17 -16 -13 -11 -13 -11 -12 -9 -9 -10 -9 -9 -9 -9 -9 -9 -10 -10 -10 -11 -11 -11 -11 -11 -12 -12 -11 -12 -12 -12 -11 -12 -12 -12 -12 -12
-20 -19 -19 -19 -19 -19 -18 -18 -18 -17 -16 -16 -15 -13 -11 -11 -10 -10 -10 -10 -10 -9 -10 -10 -10 -10 -10 -11 -11 -12 -12 -12 -12 -12 -12 -12 -12 -12 -12 -12 -13 -12 -12 -12
-19 -19 -19 -19 -19 -20 -18 -18 -18 -18 -17 -16 -16 -14 -13 -12 -11 -11 -10 -10 -10 -10 -10 -11 -11 -11 -11 -11 -12 -12 -13 -13 -12 -12 -12 -12 -13 -13 -13 -14 -13 -13 -13 -14
-19 -19 -19 -19 -19 -18 -19 -19 -18 -18 -17 -16 -15 -15 -14 -12 -12 -12 -11 -11 -11 -11 -11 -11 -11 -11 -12 -12 -12 -13 -13 -13 -13 -13 -13 -13 -13 -13 -14 -14 -14 -14 -14 -14
-18 -19 -18 -18 -19 -19 -20 -18 -18 -18 -17 -16 -15 -15 -14 -13 -12 -13 -12 -12 -12 -12 -12 -12 -12 -12 -12 -13 -13 -13 -14 -13 -14 -13 -13 -13 -13 -13 -14 -14 -14 -14 -13 -14
-18 -18 -18 -19 -19 -18 -18 -20 -18 -18 -17 -16 -15 -15 -14 -14 -13 -13 -13 -12 -12 -12 -13 -13 -13 -13 -14 -14 -14 -14 -14 -14 -14 -14 -14 -14 -13 -13 -14 -13 -13 -13 -14 -14
-18 -18 -17 -17 -17 -17 -17 -18 -18 -18 -17 -17 -15 -15 -14 -14 -13 -13 -13 -13 -13 -14 -14 -14 -14 -14 -14 -14 -14 -14 -14 -13 -14 -14 -14 -13 -13 -13 -13 -13 -13 -14 -14 -14
-17 -17 -17 -17 -18 -18 -18 -17 -19 -18 -17 -16 -16 -15 -15 -14 -14 -14 -14 -14 -14 -15 -15 -14 -14 -14 -14 -14 -14 -14 -13 -14 -14 -13 -13 -13 -13 -13 -13 -13 -14 -14 -14 -14
-17 -17 -17 -17 -17 -17 -17 -17 -18 -18 -17 -17 -16 -15 -16 -15 -15 -15 -15 -15 -15 -15 -15 -15 -15 -14 -14 -14 -14 -14 -14 -14 -13 -14 -14 -13 -13 -13 -13 -13 -13 -13 -13 -13
-17 -17 -17 -17 -17 -17 -17 -17 -17 -17 -17 -16 -15 -15 -16 -15 -15 -15 -15 -15 -15 -15 -15 -15 -15 -14 -14 -14 -14 -14 -13 -13 -13 -13 -13 -13 -14 -13 -13 -13 -13 -13 -13 -13
-17 -17 -16 -16 -17 -17 -16 -17 -17 -17 -16 -15 -15 -15 -15 -15 -15 -15 -15 -15 -15 -15 -15 -15 -15 -14 -15 -14 -14 -14 -13 -13 -14 -14 -14 -14 -14 -14 -14 -14 -13 -13 -13 -13
-17 -17 -17 -16 -16 -16 -16 -17 -16 -16 -15 -15 -14 -15 -15 -15 -15 -15 -15 -15 -15 -15 -14 -15 -15 -15 -15 -14 -14 -14 -14 -14 -14 -14 -14 -14 -14 -14 -13 -13 -13 -13 -13 -13
-17 -17 -16 -17 -16 -16 -16 -16 -16 -16 -16 -16 -15 -15 -15 -15 -14 -15 -15 -15 -15 -15 -15 -14 -14 -14 -14 -14 -14 -15 -15 -15 -14 -14 -14 -14 -14 -14 -14 -13 -13 -13 -13 -13
-17 -17 -17 -17 -17 -16 -16 -16 -16 -16 -16 -16 -15 -16 -15 -15 -15 -15 -15 -15 -15 -15 -15 -14 -14 -14 -14 -15 -15 -15 -14 -14 -14 -14 -14 -14 -14 -14 -14 -14 -14 -14 -13 -14
-17 -17 -17 -17 -16 -16 -17 -16 -16 -16 -16 -16 -16 -16 -16 -15 -15 -15 -15 -15 -15 -15 -15 -14 -14 -14 -15 -15 -14 -14 -14 -14 -14 -14 -14 -14 -15 -15 -14 -14 -14 -14 -14 -14
-17 -17 -17 -17 -16 -16 -16 -16 -16 -16 -16 -16 -16 -16 -16 -15 -15 -15 -15 -16 -15 -15 -15 -14 -14 -14 -14 -14 -15 -15 -15 -14 -14 -15 -15 -15 -15 -15 -14 -14 -14 -14 -14 -14
-16 -17 -17 -16 -16 -16 -16 -16 -16 -16 -16 -16 -16 -16 -16 -16 -16 -16 -16 -16 -16 -15 -15 -15 -15 -15 -15 -15 -15 -15 -15 -15 -15 -15 -15 -15 -15 -15 -15 -15 -14 -14 -15 -15
-16 -16 -16 -16 -16 -16 -16 -16 -16 -16 -16 -16 -16 -16 -16 -16 -16 -16 -16 -16 -16 -15 -15 -15 -15 -15 -15 -15 -15 -15 -15 -15 -15 -15 -15 -15 -15 -15 -15 -15 -15 -15 -15 -15
-16 -16 -16 -16 -16 -16 -16 -15 -15 -15 -16 -16 -16 -16 -15 -15 -16 -16 -16 -16 -15 -15 -15 -15 -15 -15 -15 -15 -15 -15 -15 -15 -15 -15 -15 -15 -15 -15 -15 -15 -15 -16 -16 -16

GFSCGP_500_temp_138.txt.gz
Temp
-16 -15 -14 -12 -12 -12 -11 -11 -11 -11 -12 -11 -9 -10 -9 -10 -9 -8 -8 -8 -8 -8 -9 -9 -9 -9 -8 -7 -7 -7 -8 -8 -9 -8 -9 -10 -10 -11 -10 -9 -9 -9 -9 -9
-20 -19 -15 -13 -14 -14 -13 -13 -12 -13 -13 -12 -11 -10 -9 -10 -9 -8 -8 -9 -9 -8 -8 -8 -8 -9 -8 -8 -8 -8 -9 -9 -10 -10 -10 -10 -11 -10 -10 -10 -9 -9 -10 -10
-23 -21 -17 -16 -16 -15 -14 -13 -12 -12 -14 -14 -13 -14 -13 -9 -9 -8 -8 -9 -9 -8 -8 -8 -8 -8 -7 -8 -9 -9 -9 -9 -10 -10 -11 -11 -11 -11 -11 -10 -10 -10 -10 -10
-21 -21 -21 -18 -18 -16 -15 -13 -12 -13 -14 -14 -14 -14 -14 -9 -9 -9 -8 -8 -8 -8 -8 -8 -8 -8 -7 -9 -9 -9 -9 -10 -10 -10 -10 -11 -11 -11 -10 -10 -10 -10 -11 -10
-20 -20 -20 -20 -20 -18 -16 -14 -14 -14 -15 -14 -14 -14 -13 -12 -10 -9 -8 -8 -8 -8 -8 -8 -8 -7 -8 -9 -9 -8 -9 -10 -10 -10 -11 -11 -11 -10 -10 -10 -10 -11 -11 -11
-20 -19 -20 -20 -20 -20 -17 -17 -17 -17 -16 -15 -14 -14 -12 -12 -7 -9 -9 -9 -9 -9 -8 -8 -8 -7 -8 -8 -8 -8 -9 -10 -10 -11 -11 -11 -11 -10 -11 -11 -11 -11 -11 -11
-19 -19 -19 -19 -19 -19 -19 -18 -17 -16 -17 -15 -14 -14 -11 -9 -11 -10 -9 -9 -9 -9 -9 -9 -8 -8 -8 -8 -8 -8 -9 -10 -10 -11 -11 -11 -11 -10 -10 -11 -11 -11 -11 -11
-20 -19 -20 -20 -18 -19 -19 -19 -18 -16 -16 -15 -13 -11 -10 -11 -13 -12 -11 -9 -9 -9 -9 -8 -9 -8 -9 -8 -7 -8 -9 -9 -10 -10 -10 -10 -10 -9 -11 -11 -11 -11 -11 -11
-20 -19 -18 -19 -19 -19 -19 -19 -18 -17 -16 -15 -12 -11 -13 -14 -13 -13 -12 -10 -9 -9 -9 -9 -10 -9 -8 -8 -7 -9 -8 -9 -9 -9 -9 -9 -9 -10 -11 -11 -11 -11 -11 -11
-19 -19 -18 -19 -18 -19 -19 -19 -18 -17 -15 -16 -15 -14 -14 -13 -13 -12 -13 -11 -9 -10 -10 -10 -10 -8 -8 -8 -9 -10 -9 -9 -9 -9 -9 -9 -10 -11 -11 -11 -11 -11 -11 -11
-19 -19 -19 -19 -18 -19 -19 -18 -18 -17 -15 -15 -15 -15 -13 -14 -13 -13 -12 -11 -10 -9 -10 -9 -8 -8 -8 -10 -9 -9 -9 -9 -9 -9 -10 -10 -11 -11 -11 -12 -12 -12 -12 -12
-19 -18 -18 -18 -19 -18 -20 -18 -18 -17 -16 -15 -15 -14 -14 -14 -14 -12 -12 -11 -10 -10 -10 -9 -9 -9 -10 -10 -10 -10 -10 -10 -10 -10 -11 -11 -11 -12 -12 -12 -13 -13 -13 -12
-18 -17 -18 -18 -18 -18 -19 -18 -17 -17 -15 -15 -14 -14 -14 -14 -13 -10 -12 -12 -12 -11 -11 -10 -11 -11 -10 -10 -10 -10 -10 -11 -11 -11 -11 -12 -12 -13 -13 -12 -13 -13 -13 -12
-17 -17 -18 -18 -18 -18 -18 -19 -17 -16 -15 -15 -14 -14 -14 -13 -12 -12 -12 -12 -13 -12 -12 -11 -11 -11 -11 -10 -11 -11 -11 -11 -11 -12 -12 -12 -13 -13 -12 -12 -13 -12 -12 -12
-16 -17 -17 -18 -17 -17 -18 -17 -17 -17 -16 -15 -14 -13 -14 -13 -12 -12 -13 -13 -12 -12 -12 -12 -11 -11 -11 -11 -11 -11 -11 -11 -12 -12 -13 -13 -13 -13 -13 -13 -13 -13 -13 -13
-16 -16 -17 -17 -17 -17 -18 -17 -16 -16 -16 -15 -13 -14 -14 -13 -13 -14 -14 -13 -12 -12 -12 -12 -12 -11 -12 -12 -12 -12 -12 -13 -13 -13 -13 -13 -13 -13 -13 -13 -13 -13 -13 -13
-17 -16 -16 -16 -17 -17 -17 -17 -16 -17 -15 -14 -14 -14 -14 -14 -14 -14 -14 -13 -13 -13 -13 -12 -12 -12 -13 -13 -13 -13 -13 -13 -13 -14 -14 -14 -13 -13 -13 -13 -13 -13 -13 -13
-16 -16 -16 -16 -17 -17 -17 -17 -16 -16 -16 -16 -15 -14 -14 -14 -14 -14 -14 -14 -13 -13 -13 -13 -13 -13 -13 -14 -14 -13 -14 -14 -14 -14 -14 -14 -14 -13 -13 -13 -13 -13 -13 -13
-16 -16 -16 -16 -16 -17 -18 -15 -16 -15 -15 -15 -14 -14 -15 -14 -14 -14 -15 -15 -14 -14 -14 -14 -14 -14 -14 -14 -14 -14 -14 -14 -14 -14 -14 -14 -14 -14 -13 -13 -13 -13 -13 -13
-16 -16 -17 -16 -16 -16 -17 -17 -16 -16 -16 -16 -15 -15 -15 -15 -15 -14 -15 -15 -15 -15 -15 -14 -15 -15 -14 -14 -14 -14 -14 -14 -14 -14 -14 -14 -14 -13 -14 -13 -13 -13 -13 -13
-16 -16 -16 -16 -16 -15 -15 -15 -17 -16 -16 -16 -15 -15 -15 -15 -15 -15 -15 -15 -15 -15 -15 -15 -15 -15 -14 -15 -15 -14 -14 -15 -14 -14 -14 -14 -14 -14 -14 -13 -13 -13 -13 -13
-16 -16 -15 -15 -16 -15 -15 -15 -15 -15 -15 -14 -15 -15 -16 -16 -15 -15 -15 -15 -15 -15 -15 -15 -15 -15 -14 -14 -15 -15 -15 -15 -14 -14 -14 -14 -14 -14 -13 -13 -14 -14 -14 -14
-16 -16 -16 -15 -14 -15 -15 -15 -15 -15 -15 -15 -15 -15 -15 -15 -16 -15 -15 -15 -15 -15 -15 -15 -15 -15 -15 -15 -14 -14 -14 -15 -14 -14 -14 -14 -14 -13 -14 -14 -14 -14 -14 -14
-16 -16 -16 -15 -15 -15 -15 -15 -15 -15 -15 -15 -15 -15 -16 -15 -15 -16 -15 -15 -15 -15 -15 -15 -15 -15 -15 -15 -14 -14 -14 -14 -14 -14 -14 -14 -14 -14 -14 -14 -14 -14 -14 -15
-16 -16 -16 -15 -16 -16 -15 -15 -15 -15 -15 -15 -15 -15 -15 -14 -15 -15 -15 -15 -15 -15 -16 -15 -15 -15 -15 -14 -14 -14 -14 -14 -14 -14 -14 -14 -14 -14 -14 -14 -14 -14 -15 -16
-16 -16 -16 -16 -16 -16 -16 -16 -16 -16 -16 -15 -15 -15 -15 -15 -15 -15 -15 -16 -16 -16 -15 -15 -15 -15 -15 -14 -14 -14 -14 -14 -14 -15 -14 -14 -14 -14 -14 -15 -15 -15 -16 -16

GFSCGP_500_temp_141.txt.gz
Temp
-18 -18 -16 -14 -14 -13 -13 -13 -12 -12 -12 -12 -10 -10 -10 -10 -10 -10 -9 -9 -8 -8 -9 -9 -8 -8 -9 -7 -6 -6 -7 -7 -7 -6 -9 -9 -9 -9 -9 -10 -10 -10 -10 -10
-21 -20 -17 -15 -15 -14 -14 -14 -13 -13 -14 -12 -11 -11 -10 -10 -10 -10 -9 -8 -8 -9 -9 -8 -8 -8 -9 -7 -7 -7 -8 -8 -8 -9 -9 -10 -10 -11 -10 -11 -10 -11 -10 -10
-21 -20 -21 -19 -17 -16 -15 -15 -14 -13 -13 -14 -12 -12 -12 -10 -10 -10 -9 -8 -8 -8 -8 -8 -8 -8 -8 -8 -7 -8 -8 -9 -10 -10 -10 -11 -10 -10 -10 -10 -11 -10 -10 -10
-21 -22 -21 -21 -19 -18 -17 -15 -14 -14 -14 -13 -14 -13 -13 -11 -10 -10 -9 -8 -8 -8 -8 -8 -8 -8 -8 -8 -8 -8 -9 -10 -10 -10 -10 -10 -10 -10 -10 -10 -11 -10 -10 -11
-21 -21 -21 -21 -21 -20 -18 -16 -15 -14 -15 -15 -15 -15 -13 -13 -11 -9 -8 -8 -8 -9 -8 -8 -8 -8 -8 -8 -8 -9 -9 -10 -10 -10 -10 -10 -10 -10 -10 -11 -11 -11 -11 -10
-21 -21 -21 -21 -20 -21 -20 -19 -16 -16 -16 -16 -14 -14 -14 -14 -9 -9 -9 -9 -8 -9 -8 -8 -8 -8 -8 -8 -8 -9 -9 -9 -9 -10 -10 -9 -9 -10 -10 -10 -11 -11 -11 -11
-20 -20 -20 -20 -20 -20 -20 -19 -18 -18 -17 -16 -14 -14 -12 -11 -10 -9 -9 -9 -9 -9 -9 -9 -8 -8 -8 -8 -8 -9 -8 -9 -10 -10 -9 -10 -10 -10 -10 -10 -10 -11 -11 -11
-20 -20 -19 -20 -19 -21 -20 -18 -18 -18 -17 -16 -14 -14 -12 -10 -12 -12 -11 -10 -10 -9 -9 -9 -8 -8 -8 -8 -7 -9 -10 -10 -10 -10 -9 -9 -9 -9 -9 -10 -11 -11 -11 -12
-20 -19 -19 -19 -20 -20 -20 -19 -19 -18 -16 -15 -15 -14 -12 -13 -14 -14 -11 -10 -9 -9 -9 -9 -9 -9 -8 -8 -8 -9 -9 -9 -9 -9 -9 -8 -9 -10 -10 -10 -11 -11 -11 -11
-19 -19 -19 -19 -19 -19 -18 -19 -19 -18 -17 -16 -15 -14 -12 -14 -13 -12 -11 -10 -9 -10 -10 -10 -9 -8 -8 -8 -8 -9 -9 -10 -9 -9 -8 -9 -9 -10 -11 -11 -11 -11 -11 -11
-18 -18 -19 -19 -19 -19 -19 -19 -19 -18 -17 -16 -15 -14 -13 -14 -13 -13 -12 -11 -10 -10 -9 -8 -8 -8 -8 -9 -9 -10 -9 -9 -9 -9 -9 -10 -11 -11 -11 -11 -11 -11 -11 -12
-19 -18 -18 -18 -19 -19 -18 -19 -19 -18 -17 -16 -15 -14 -14 -14 -14 -13 -13 -12 -10 -9 -9 -8 -9 -9 -9 -9 -10 -10 -9 -9 -10 -10 -10 -11 -11 -11 -11 -12 -11 -12 -12 -12
-19 -18 -17 -18 -18 -18 -19 -18 -18 -18 -17 -16 -15 -15 -15 -14 -14 -13 -13 -12 -10 -10 -10 -10 -9 -9 -9 -9 -10 -10 -10 -10 -10 -10 -10 -10 -10 -11 -12 -11 -12 -12 -12 -12
-18 -17 -17 -17 -18 -19 -18 -19 -18 -17 -16 -16 -15 -15 -15 -15 -14 -13 -13 -12 -12 -12 -12 -10 -10 -10 -9 -10 -10 -10 -11 -11 -11 -11 -11 -11 -12 -12 -11 -12 -12 -13 -13 -12
-18 -17 -17 -17 -18 -18 -18 -18 -18 -17 -17 -15 -15 -15 -14 -15 -13 -13 -13 -14 -13 -13 -12 -12 -11 -11 -10 -10 -11 -11 -12 -12 -11 -12 -12 -12 -12 -12 -13 -13 -13 -13 -13 -12
-17 -17 -17 -18 -17 -18 -18 -18 -18 -17 -17 -16 -15 -14 -13 -14 -13 -14 -14 -14 -14 -14 -13 -13 -11 -11 -11 -12 -12 -12 -12 -12 -12 -12 -12 -12 -13 -13 -13 -13 -13 -13 -14 -13
-17 -17 -17 -17 -17 -17 -18 -17 -18 -17 -15 -14 -14 -13 -12 -14 -14 -14 -14 -14 -14 -13 -13 -13 -12 -12 -13 -13 -13 -13 -13 -13 -13 -13 -13 -13 -13 -13 -13 -13 -13 -13 -13 -13
-16 -17 -16 -17 -17 -16 -17 -17 -18 -17 -16 -15 -14 -13 -13 -13 -13 -14 -14 -14 -14 -13 -13 -13 -13 -13 -13 -13 -14 -13 -13 -13 -13 -13 -14 -14 -13 -13 -13 -14 -14 -13 -13 -13
-16 -17 -17 -17 -17 -16 -18 -17 -16 -16 -16 -15 -14 -14 -14 -13 -14 -14 -14 -14 -14 -14 -14 -14 -14 -14 -14 -14 -14 -14 -14 -14 -14 -14 -14 -14 -14 -14 -14 -14 -13 -13 -13 -13
-16 -16 -16 -17 -17 -16 -16 -15 -17 -17 -17 -16 -16 -14 -14 -14 -14 -14 -14 -14 -15 -14 -14 -14 -14 -15 -15 -15 -14 -14 -14 -14 -14 -15 -14 -14 -14 -14 -13 -14 -13 -13 -13 -13
-16 -16 -16 -17 -17 -16 -16 -16 -16 -16 -16 -16 -14 -14 -14 -14 -14 -14 -14 -15 -15 -15 -15 -15 -15 -15 -15 -15 -15 -15 -14 -14 -15 -15 -15 -14 -14 -14 -14 -13 -13 -13 -13 -13
-16 -15 -15 -16 -15 -15 -16 -16 -15 -16 -15 -15 -15 -14 -15 -14 -14 -15 -15 -15 -15 -15 -15 -15 -15 -15 -15 -15 -15 -15 -15 -15 -15 -15 -14 -14 -14 -14 -14 -13 -14 -14 -14 -13
-16 -15 -15 -15 -16 -16 -15 -16 -16 -16 -15 -15 -15 -15 -15 -16 -16 -16 -15 -15 -15 -15 -15 -15 -15 -15 -15 -15 -15 -15 -15 -15 -15 -14 -14 -14 -14 -14 -14 -14 -14 -14 -13 -14
-16 -16 -15 -15 -15 -16 -16 -16 -15 -15 -15 -14 -14 -15 -15 -15 -15 -15 -15 -15 -15 -15 -15 -15 -15 -15 -15 -15 -15 -15 -15 -14 -14 -14 -14 -14 -14 -14 -14 -14 -14 -14 -14 -14
-16 -16 -16 -15 -15 -15 -15 -15 -15 -15 -15 -15 -14 -15 -15 -15 -15 -15 -15 -15 -15 -15 -15 -15 -15 -15 -15 -15 -15 -14 -14 -14 -14 -14 -14 -14 -14 -14 -14 -14 -14 -14 -14 -14
-16 -16 -16 -16 -16 -16 -15 -15 -15 -15 -15 -15 -15 -15 -15 -15 -15 -15 -15 -15 -15 -15 -15 -15 -15 -15 -15 -15 -15 -15 -15 -14 -14 -14 -14 -14 -14 -15 -14 -14 -14 -14 -15 -15

GFSCGP_500_temp_144.txt.gz
Temp
-20 -19 -18 -16 -15 -14 -14 -14 -13 -12 -12 -12 -11 -10 -10 -10 -11 -11 -10 -9 -9 -8 -9 -10 -9 -9 -9 -8 -7 -7 -7 -8 -8 -8 -8 -6 -8 -9 -8 -9 -10 -10 -10 -11
-20 -20 -18 -19 -17 -15 -15 -15 -14 -13 -13 -13 -12 -11 -11 -11 -10 -10 -10 -10 -9 -9 -9 -10 -9 -9 -9 -8 -8 -8 -7 -7 -8 -8 -7 -9 -8 -8 -9 -9 -11 -10 -11 -11
-20 -21 -23 -22 -19 -16 -15 -15 -15 -14 -14 -14 -13 -12 -12 -11 -11 -10 -10 -9 -9 -8 -9 -10 -10 -9 -9 -8 -9 -8 -8 -8 -9 -8 -7 -7 -8 -7 -8 -8 -8 -9 -10 -11
-21 -22 -22 -22 -21 -19 -17 -15 -15 -14 -14 -14 -14 -12 -12 -11 -11 -11 -10 -9 -9 -8 -9 -10 -9 -9 -8 -8 -8 -8 -9 -9 -8 -8 -7 -7 -7 -7 -8 -9 -8 -8 -10 -10
-21 -21 -21 -21 -21 -22 -17 -16 -15 -15 -14 -15 -15 -13 -11 -12 -11 -10 -9 -9 -8 -8 -9 -9 -9 -9 -8 -8 -8 -9 -10 -9 -8 -7 -8 -9 -9 -9 -8 -8 -9 -9 -9 -10
-20 -21 -21 -21 -21 -21 -20 -19 -18 -17 -16 -17 -15 -14 -13 -12 -10 -9 -9 -9 -8 -8 -9 -9 -9 -9 -8 -8 -8 -9 -10 -9 -8 -7 -6 -7 -8 -9 -9 -9 -10 -10 -11 -11
-21 -21 -21 -21 -21 -21 -21 -20 -19 -19 -18 -16 -15 -15 -13 -11 -10 -10 -9 -9 -8 -9 -9 -9 -9 -9 -8 -8 -9 -9 -9 -10 -8 -8 -7 -9 -7 -8 -9 -10 -10 -10 -11 -11
-20 -20 -20 -20 -20 -20 -21 -20 -19 -19 -19 -16 -16 -16 -12 -11 -11 -10 -10 -10 -9 -9 -9 -9 -9 -9 -9 -8 -9 -9 -10 -9 -8 -8 -9 -8 -8 -7 -9 -10 -10 -10 -11 -11
-20 -20 -19 -19 -20 -20 -21 -20 -19 -19 -18 -17 -16 -14 -13 -12 -12 -11 -10 -10 -9 -9 -9 -9 -9 -9 -9 -9 -9 -9 -9 -9 -9 -9 -9 -8 -8 -9 -10 -11 -11 -11 -11 -12
-19 -20 -19 -19 -20 -20 -20 -21 -20 -19 -19 -18 -17 -14 -14 -13 -12 -11 -10 -9 -9 -9 -9 -9 -8 -9 -9 -9 -9 -9 -9 -9 -9 -9 -9 -9 -9 -9 -10 -10 -11 -11 -11 -11
-19 -19 -19 -20 -19 -20 -20 -20 -19 -19 -19 -18 -16 -14 -14 -13 -14 -12 -10 -10 -10 -9 -9 -8 -8 -9 -9 -9 -9 -9 -10 -9 -9 -9 -9 -9 -9 -10 -10 -10 -10 -11 -11 -11
-19 -19 -19 -19 -19 -20 -20 -20 -19 -19 -18 -17 -16 -14 -14 -14 -14 -13 -12 -11 -10 -9 -9 -8 -8 -9 -9 -9 -9 -10 -10 -10 -10 -10 -10 -9 -10 -10 -10 -10 -10 -11 -11 -12
-18 -18 -18 -18 -19 -19 -19 -19 -19 -19 -17 -17 -16 -15 -14 -14 -14 -13 -12 -11 -10 -10 -9 -9 -8 -8 -9 -9 -10 -10 -10 -11 -10 -10 -10 -10 -10 -11 -11 -11 -12 -12 -12 -12
-18 -18 -18 -18 -18 -18 -18 -19 -19 -19 -18 -17 -17 -15 -15 -14 -14 -13 -13 -12 -11 -10 -10 -9 -9 -9 -9 -10 -10 -11 -11 -11 -11 -11 -11 -11 -11 -11 -12 -12 -12 -12 -12 -12
-17 -17 -17 -18 -18 -18 -18 -18 -19 -19 -18 -17 -17 -16 -15 -14 -14 -13 -13 -12 -12 -11 -10 -10 -10 -10 -10 -10 -11 -11 -11 -11 -11 -11 -12 -12 -12 -12 -12 -12 -12 -12 -12 -12
-17 -17 -18 -18 -18 -18 -18 -19 -19 -19 -17 -17 -16 -16 -15 -14 -14 -14 -13 -13 -12 -11 -11 -11 -11 -11 -11 -11 -12 -12 -12 -11 -12 -12 -12 -12 -12 -13 -13 -13 -12 -12 -13 -12
-17 -17 -18 -18 -17 -18 -19 -19 -18 -18 -17 -17 -16 -15 -15 -15 -14 -14 -13 -13 -12 -12 -11 -12 -12 -12 -12 -12 -12 -13 -13 -13 -13 -13 -13 -13 -13 -13 -13 -13 -13 -13 -13 -13
-17 -17 -17 -17 -17 -18 -18 -19 -18 -18 -17 -16 -16 -15 -15 -15 -14 -14 -14 -13 -13 -14 -14 -13 -13 -13 -13 -13 -14 -14 -14 -14 -14 -14 -14 -14 -14 -13 -13 -13 -13 -13 -13 -13
-17 -17 -17 -17 -17 -17 -18 -17 -17 -17 -17 -16 -15 -14 -15 -14 -13 -13 -13 -14 -14 -14 -14 -14 -14 -14 -15 -14 -14 -14 -14 -14 -14 -14 -14 -14 -14 -14 -14 -13 -13 -13 -13 -13
-17 -17 -17 -17 -16 -17 -17 -17 -17 -18 -17 -17 -15 -14 -14 -13 -14 -14 -14 -14 -14 -14 -15 -15 -15 -15 -15 -15 -14 -14 -14 -14 -15 -15 -15 -14 -14 -14 -14 -14 -13 -13 -13 -13
-16 -17 -17 -18 -17 -17 -17 -16 -16 -16 -16 -16 -14 -13 -14 -13 -14 -14 -14 -14 -14 -14 -14 -14 -15 -15 -15 -15 -15 -15 -15 -15 -15 -15 -14 -14 -15 -14 -14 -14 -14 -13 -13 -13
-16 -16 -16 -17 -17 -16 -15 -14 -15 -16 -16 -16 -15 -14 -13 -13 -14 -14 -14 -14 -14 -14 -14 -15 -15 -15 -15 -15 -15 -15 -15 -15 -15 -14 -15 -15 -14 -14 -14 -14 -14 -13 -14 -13
-16 -16 -16 -16 -15 -16 -16 -16 -16 -16 -15 -15 -14 -14 -14 -14 -14 -14 -14 -14 -14 -15 -15 -15 -15 -15 -15 -15 -15 -15 -15 -15 -15 -15 -15 -15 -14 -14 -14 -14 -14 -14 -14 -13
-16 -16 -16 -15 -16 -16 -16 -16 -16 -16 -15 -14 -16 -15 -15 -14 -14 -14 -14 -15 -15 -15 -15 -15 -15 -15 -15 -15 -15 -14 -14 -15 -15 -15 -14 -14 -14 -14 -14 -14 -14 -14 -14 -14
-15 -16 -16 -15 -16 -15 -15 -15 -15 -15 -15 -15 -14 -15 -15 -15 -14 -15 -15 -15 -15 -15 -15 -15 -15 -15 -15 -15 -15 -15 -15 -15 -14 -14 -14 -14 -14 -14 -14 -14 -14 -14 -14 -14
-16 -16 -15 -16 -16 -15 -15 -14 -15 -15 -15 -14 -14 -14 -14 -15 -15 -15 -15 -15 -15 -15 -15 -15 -15 -15 -15 -15 -15 -15 -14 -14 -14 -14 -14 -14 -14 -14 -14 -14 -14 -14 -14 -14

GFSCGP_500_temp_147.txt.gz
Temp
-20 -21 -19 -17 -17 -15 -15 -15 -14 -13 -13 -13 -11 -10 -9 -10 -10 -11 -11 -10 -10 -10 -10 -9 -8 -8 -8 -8 -9 -9 -9 -8 -7 -8 -7 -7 -7 -7 -6 -8 -8 -9 -9 -9
-20 -20 -21 -21 -20 -18 -15 -15 -14 -14 -13 -13 -12 -11 -11 -11 -11 -11 -11 -10 -10 -10 -9 -9 -9 -9 -9 -9 -9 -9 -8 -8 -8 -8 -8 -7 -6 -6 -6 -6 -6 -8 -9 -9
-20 -21 -21 -21 -21 -20 -18 -16 -15 -14 -14 -14 -13 -11 -11 -11 -11 -11 -10 -10 -10 -10 -10 -9 -10 -10 -10 -10 -10 -9 -9 -8 -8 -9 -8 -7 -7 -6 -6 -7 -7 -8 -9 -9
-20 -21 -22 -21 -20 -21 -19 -17 -16 -15 -15 -14 -14 -13 -12 -11 -11 -11 -10 -10 -9 -10 -10 -10 -10 -10 -10 -10 -9 -9 -9 -8 -9 -9 -8 -8 -7 -6 -7 -9 -8 -8 -8 -10
-21 -21 -21 -21 -21 -23 -20 -19 -17 -16 -15 -15 -15 -14 -12 -12 -11 -11 -10 -9 -9 -10 -10 -9 -9 -9 -9 -9 -9 -9 -9 -9 -10 -9 -8 -7 -6 -7 -8 -8 -8 -7 -8 -8
-20 -20 -21 -22 -22 -22 -21 -21 -18 -17 -16 -17 -15 -14 -12 -12 -11 -10 -9 -10 -10 -10 -10 -9 -9 -10 -9 -9 -8 -8 -9 -10 -10 -10 -9 -8 -8 -9 -8 -8 -8 -7 -6 -8
-20 -21 -21 -21 -21 -22 -21 -21 -21 -19 -18 -17 -16 -15 -12 -12 -11 -10 -10 -10 -10 -10 -10 -10 -9 -9 -9 -9 -9 -9 -9 -10 -9 -9 -9 -9 -9 -7 -8 -7 -8 -8 -8 -10
-19 -20 -20 -21 -21 -21 -21 -21 -21 -20 -19 -16 -16 -15 -13 -12 -11 -10 -10 -10 -11 -10 -10 -10 -9 -9 -9 -9 -9 -9 -9 -9 -9 -9 -9 -9 -9 -8 -8 -8 -7 -9 -10 -11
-20 -19 -20 -20 -20 -21 -21 -21 -21 -20 -20 -17 -17 -15 -13 -12 -12 -11 -10 -10 -10 -9 -9 -9 -9 -9 -9 -9 -8 -9 -9 -9 -9 -9 -9 -9 -9 -9 -8 -8 -9 -10 -11 -11
-19 -19 -19 -19 -20 -20 -20 -21 -21 -21 -20 -19 -18 -14 -13 -13 -12 -11 -11 -10 -10 -10 -10 -9 -9 -9 -9 -8 -8 -9 -10 -9 -9 -9 -9 -9 -10 -9 -10 -10 -11 -11 -11 -11
-19 -20 -20 -19 -19 -20 -20 -20 -21 -21 -20 -19 -17 -14 -14 -13 -13 -12 -11 -11 -10 -10 -10 -9 -9 -9 -9 -9 -9 -9 -9 -9 -9 -9 -9 -10 -9 -9 -10 -10 -11 -11 -11 -12
-19 -19 -19 -19 -19 -20 -20 -21 -20 -20 -19 -19 -17 -14 -14 -13 -13 -12 -12 -12 -11 -10 -10 -9 -9 -9 -9 -9 -9 -9 -10 -10 -10 -10 -10 -10 -10 -10 -10 -11 -12 -12 -12 -12
-19 -19 -19 -19 -19 -19 -20 -20 -20 -20 -20 -19 -17 -15 -14 -14 -14 -13 -13 -12 -11 -10 -10 -9 -9 -9 -9 -10 -10 -10 -10 -10 -10 -10 -10 -10 -10 -10 -10 -11 -11 -11 -11 -11
-18 -18 -19 -19 -19 -18 -19 -19 -20 -20 -19 -18 -17 -16 -15 -15 -14 -13 -13 -11 -10 -10 -9 -9 -9 -9 -10 -10 -10 -10 -10 -10 -10 -10 -10 -10 -11 -11 -11 -11 -11 -10 -11 -11
-18 -18 -18 -18 -19 -19 -19 -19 -19 -19 -19 -18 -17 -17 -15 -15 -14 -13 -12 -11 -10 -10 -10 -10 -9 -10 -10 -11 -11 -11 -11 -11 -11 -11 -11 -10 -11 -11 -11 -11 -11 -11 -11 -12
-18 -18 -18 -19 -19 -19 -19 -19 -19 -18 -19 -17 -18 -17 -15 -14 -14 -13 -12 -11 -10 -10 -11 -10 -10 -11 -12 -11 -11 -12 -12 -12 -12 -11 -11 -11 -11 -11 -11 -11 -12 -12 -12 -12
-17 -17 -18 -18 -18 -19 -18 -18 -18 -18 -18 -17 -17 -16 -15 -14 -14 -13 -12 -12 -11 -11 -11 -11 -12 -12 -12 -12 -12 -12 -12 -12 -12 -12 -12 -12 -12 -12 -12 -13 -13 -12 -12 -12
-17 -17 -18 -17 -18 -18 -19 -19 -18 -18 -18 -17 -17 -16 -15 -14 -14 -14 -13 -12 -12 -12 -12 -13 -13 -13 -13 -13 -13 -13 -13 -13 -12 -12 -13 -13 -13 -13 -13 -13 -13 -13 -12 -12
-17 -17 -17 -17 -17 -18 -19 -18 -18 -18 -18 -17 -16 -15 -15 -15 -14 -14 -13 -13 -13 -13 -13 -14 -14 -14 -14 -14 -14 -14 -14 -13 -13 -13 -13 -13 -14 -14 -13 -13 -13 -13 -13 -13
-17 -17 -17 -18 -17 -18 -18 -18 -19 -19 -18 -16 -16 -15 -15 -14 -14 -14 -14 -14 -14 -14 -14 -14 -14 -14 -14 -14 -14 -14 -14 -14 -14 -14 -14 -14 -14 -14 -14 -14 -14 -13 -13 -13
-17 -17 -17 -17 -17 -17 -18 -17 -17 -17 -17 -16 -16 -15 -15 -14 -14 -15 -14 -14 -14 -14 -15 -14 -14 -14 -15 -15 -15 -15 -15 -15 -14 -14 -15 -14 -14 -14 -14 -14 -14 -14 -14 -14
-17 -17 -17 -16 -17 -17 -17 -16 -16 -16 -16 -16 -16 -15 -15 -15 -15 -14 -14 -14 -14 -14 -15 -15 -14 -14 -14 -15 -15 -15 -15 -15 -15 -15 -15 -15 -14 -15 -15 -14 -14 -14 -14 -14
-16 -16 -16 -16 -16 -16 -17 -17 -17 -17 -16 -15 -14 -14 -14 -15 -13 -14 -15 -14 -14 -14 -14 -14 -14 -14 -14 -15 -15 -15 -14 -15 -15 -15 -15 -15 -14 -14 -15 -14 -14 -14 -14 -14
-16 -15 -15 -16 -16 -17 -17 -16 -16 -16 -16 -15 -14 -14 -14 -14 -14 -14 -14 -14 -14 -14 -14 -14 -15 -15 -14 -14 -15 -15 -14 -14 -14 -15 -15 -14 -14 -14 -14 -14 -14 -14 -14 -14
-16 -16 -16 -16 -16 -16 -16 -16 -16 -16 -15 -15 -15 -15 -13 -13 -13 -14 -14 -14 -14 -14 -14 -15 -14 -15 -15 -15 -15 -15 -15 -15 -15 -15 -15 -14 -14 -14 -14 -14 -14 -14 -14 -14
-16 -16 -16 -16 -15 -15 -16 -16 -16 -15 -15 -15 -15 -15 -15 -14 -14 -14 -14 -14 -15 -15 -15 -15 -15 -15 -15 -15 -15 -15 -15 -15 -15 -15 -15 -14 -14 -14 -14 -14 -14 -14 -14 -14